Regional Weather Roundup
Issued by NWS

Home | Current Version | Previous Version | Graphics & Text | Print | Product List | Glossary On
Versions: 1 2 3 4 5 6 7 8 9 10 11 12 13 14 15 16 17 18 19 20 21 22 23 24 25 26 27 28 29 30 31 32 33 34 35 36 37 38 39 40 41 42 43 44 45 46 47 48 49 50
000
ASUS43 KLOT 220210
RWRIL

ILLINOIS REGIONAL WEATHER ROUNDUP
NATIONAL WEATHER SERVICE CHICAGO/ROMEOVILLE IL
800 PM CST FRI NOV 21 2014

NOTE: "FAIR" INDICATES FEW OR NO CLOUDS BELOW 12,000 FEET WITH NO
SIGNIFICANT WEATHER AND/OR OBSTRUCTIONS TO VISIBILITY.

* THESE STATIONS ARE NOT UNDER NWS QUALITY CONTROL. THEY ALSO MAY NOT
  REPORT WEATHER SUCH AS PRECIPITATION OR FOG.

ILZ001-002-007-009-015-016-024-220300-
NORTHWEST ILLINOIS

CITY           SKY/WX    TMP DP  RH WIND       PRES   REMARKS
MOLINE         CLOUDY    35  12  38 SE8       30.18F WCI  29
STERLING*      CLOUDY    34  10  37 S7        30.21F WCI  28
SAVANNA*       CLOUDY    34   8  34 S12       30.19F WCI  25
$$

ILZ003-004-008-010-011-017-018-220300-
NORTH CENTRAL ILLINOIS

CITY           SKY/WX    TMP DP  RH WIND       PRES   REMARKS
ROCKFORD       CLOUDY    31   8  38 S14       30.23F WCI  21
FREEPORT*      CLOUDY    31  10  41 S14       30.21F WCI  21
ROCHELLE*      CLOUDY    30  10  43 S20G25    30.23F WCI  18
DE KALB*       MOCLDY    28   8  42 S18       30.24F WCI  15
PERU*          CLOUDY    33  13  44 S10G17    30.26F WCI  24
$$

ILZ005-006-012>014-019>023-220300-
NORTHEAST ILLINOIS

CITY           SKY/WX    TMP DP  RH WIND       PRES   REMARKS
CHICAGO-OHARE  MOCLDY    29   9  43 S14       30.27F WCI  18
CHICAGO-MIDWAY MOCLDY    31  11  43 S9        30.29F WCI  23
AURORA         CLOUDY    31   7  36 S13       30.26F WCI  21
LANSING*       CLEAR     28  12  52 S10G16    30.31F WCI  18
JOLIET*        CLOUDY    29  10  44 S6        30.29F WCI  23
WAUKEGAN       PTCLDY    29   6  38 S13       30.24F WCI  19
DUPAGE AIRPORT MOCLDY    30   8  39 S12       30.25F WCI  20
KANKAKEE*      CLOUDY    29  15  54 SE13      30.29F WCI  19
WHEELING       PTCLDY    29   8  41 S14       30.28F WCI  18
MORRIS*        CLOUDY    31  13  45 S15       30.27F WCI  21
ROMEOVILLE*    CLOUDY    29  11  46 S12       30.27F WCI  19
NORTHERLY ISL    N/A     29  11  47 SE8         N/A  WCI  21
$$

LMZ740>746-220300-
SOUTHERN LAKE MICHIGAN

STATION/POSITION SKY/WX   TEMP    WIND        PRES    VSBY  WAVE
                          AIR SEA DIR/SP/G                  HT/PER
                          (F)     (DEG/KT/KT) (MB)    (MI)  (FT/S)
SOUTHERN BUOY              35 43  180/ 23/ 29 1025.6F         5/ 5
WAUKEGAN HARBOR            32     190/ 20/ 24   N/A
HARRISON CRIB              30     180/ 23/ 28   N/A
BURNHAM HARBOR             29     160/  5/ 13   N/A
CALUMET HARBOR             29     160/ 11/ 16 1024.6F
MICHIGAN CITY              28     140/ 13/ 17   N/A
$$

ILZ025>027-034>036-040-047-049-050-058-095>099-220300-
WEST-CENTRAL ILLINOIS

CITY           SKY/WX    TMP DP  RH WIND       PRES   REMARKS
QUINCY         LGT RAIN  35  25  66 SE12      30.18F WCI  27
GALESBURG*     CLOUDY    35  16  45 SE10      30.21S WCI  27
MACOMB*        CLOUDY    36  19  49 S12       30.23F WCI  28
JACKSONVILLE*  CLOUDY    39  20  48 SE10      30.23F WCI  32
PITTSFIELD*    CLOUDY    37  26  65 SE13      30.21F WCI  28
$$

ILZ028>032-037-038-041>044-048-051>054-059>061-220300-
CENTRAL ILLINOIS

CITY           SKY/WX    TMP DP  RH WIND       PRES   REMARKS
PONTIAC        CLOUDY    34  15  45 S14       30.29S WCI  25
BLOOMINGTON    CLOUDY    33  16  50 S16       30.27F WCI  22
DECATUR        CLOUDY    36  18  48 S12       30.29F WCI  28
PEORIA         CLOUDY    37  15  40 S12G23    30.25F WCI  29
LACON*         CLOUDY    34  13  42 S10G18    30.24F WCI  26
LINCOLN*       CLOUDY    37  20  50 S13       30.28F WCI  28
SPRINGFIELD    CLOUDY    38  19  46 SE16G25   30.26F WCI  29
TAYLORVILLE    CLOUDY    34  21  60 SE13      30.28F WCI  25
$$

ILZ033-039-045-046-055>057-062-063-220300-
EAST-CENTRAL ILLINOIS

CITY           SKY/WX    TMP DP  RH WIND       PRES   REMARKS
CHAMPAIGN      CLOUDY    33  17  51 SE12      30.31R WCI  24
DANVILLE*      CLOUDY    30  15  54 SE8       30.29F WCI  22
RANTOUL*       CLOUDY    33  17  50 S8        30.31R WCI  27
MATTOON        CLOUDY    35  16  45 SE13      30.30F WCI  26
PARIS*         MOCLDY    32  19  59 SE10      30.34S WCI  24
$$

ILZ079-100>102-220300-
SOUTHWEST ILLINOIS

CITY           SKY/WX    TMP DP  RH WIND       PRES   REMARKS
BELLEVILLE     CLOUDY    40  26  56 SE8       30.28F
CAHOKIA*       CLOUDY    42  25  50 SE9       30.28F
SPARTA*        DRIZZLE   41  26  55 SE10      30.30F
$$

ILZ064>066-069>071-074>076-080>082-084>086-088>090-092>094-220300-
SOUTH-CENTRAL ILLINOIS

CITY           SKY/WX    TMP DP  RH WIND       PRES   REMARKS
CARBONDALE     CLOUDY    45  29  53 S6        30.32F
CAIRO*         LGT RAIN  45  35  70 CALM      30.33S
EFFINGHAM*     CLOUDY    37  16  43 SE8       30.33S WCI  30
MARION         CLOUDY    45  27  49 CALM      30.33F
MT. VERNON     CLOUDY    39  21  48 SE5       30.33F
CENTRALIA*     CLOUDY    39  22  49 SE7       30.31S WCI  34
SALEM*           N/A     41  21  44 SE8       30.32F
METROPOLIS*    CLOUDY    46  28  49 E3        30.32F
$$

ILZ067-068-072-073-078-083-087-091-220300-
SOUTHEAST ILLINOIS

CITY           SKY/WX    TMP DP  RH WIND       PRES   REMARKS
LAWRENCEVILLE  CLOUDY    37  20  50 SE8       30.36F WCI  31
FLORA*         CLEAR     37  22  55 SE8       30.34S WCI  31
FAIRFIELD*     CLOUDY    39  23  51 SE7       30.32F WCI  34
HARRISBURG*    CLOUDY    41  26  55 E6        30.35S
ROBINSON*      CLOUDY    36  19  49 SE8       30.37F WCI  29
CARMI*         CLOUDY    42  27  55 E7        30.34F
$$

ABBREVIATIONS USED IN REMARKS
   TC - TEMPERATURE IN CELSIUS
  WCI - WIND CHILL INDEX
   HX - HEAT INDEX
  VSB - VISIBILITY
$$



USA.gov is the U.S. government's official web portal to all federal, state and local government web resources and services.